Clarksville, TN

3:15 AM CST on February 20, 2017 (GMT -0600)
Outlaw

Weather History for KCKV - November, 2012

Change the Weather History Date:

Friday, November 16, 2012

  Actual Average Record
Temperature  
Mean Temperature 43 °F 48 °F  
Max Temperature 57 °F 59 °F 82 °F (1958)
Min Temperature 29 °F 37 °F 16 °F (1982)
Degree Days  
Heating Degree Days 22    
Month to date heating degree days 280  
Since 1 July heating degree days 578  
Cooling Degree Days 0    
Month to date cooling degree days 0  
Year to date cooling degree days  
Moisture  
Dew Point 29 °F    
Average Humidity 63    
Maximum Humidity 92    
Minimum Humidity 33    
Precipitation  
Precipitation 0.00 in 0.16 in 2.15 in (2011)
Month to date precipitation 1.25 2.16  
Year to date precipitation 42.73  
Sea Level Pressure  
Sea Level Pressure 30.40 in    
Wind  
Wind Speed 5 mph (North)    
Max Wind Speed 10 mph    
Max Gust Speed 14 mph    
Visibility 8 miles    
Events      
T = Trace of Precipitation, MM = Missing Value Source: NWS Daily Summary

Daily Weather History Graph

Daily Weather History Graph

Search for Another Location

Airport or City:

Trip Planner

Search our weather history database for the weather conditions in past years. The results will help you decide how hot, cold, wet, or windy it might be!

Date:

Astronomy

Nov. 16, 2012 Rise Set
Actual Time 6:28 AM CST 4:39 PM CST
Civil Twilight 6:01 AM CST 5:07 PM CST
Nautical Twilight 5:30 AM CST 5:38 PM CST
Astronomical Twilight 4:59 AM CST 6:09 PM CST
Moon 9:21 AM CST (11/16) 7:39 PM CST (11/16)
Length of Visible Light 11h 06m
Length of Day
10h 10m
Waxing Crescent, 12% of the Moon is Illuminated
Nov 16
Waxing Crescent
Nov 20
First Quarter
Nov 28
Full
Dec 6
Last Quarter
Dec 13
New

Hourly Weather History & Observations

Time (CST) Temp. Windchill Dew Point Humidity Pressure Visibility Wind Dir Wind Speed Gust Speed Precip Events Conditions
12:52 AM 33.1 °F - 28.9 °F 85% 30.35 in 7.0 mi Calm Calm - N/A   Clear
1:52 AM 34.0 °F 31.0 °F 30.0 °F 85% 30.36 in 8.0 mi NNW 3.5 mph - N/A   Clear
2:52 AM 32.0 °F - 28.9 °F 88% 30.36 in 7.0 mi Calm Calm - N/A   Clear
3:52 AM 30.0 °F - 27.0 °F 88% 30.36 in 6.0 mi Calm Calm - N/A   Clear
4:52 AM 30.9 °F 26.2 °F 28.0 °F 89% 30.37 in 6.0 mi NNW 4.6 mph - N/A   Clear
5:52 AM 32.0 °F 28.7 °F 28.0 °F 85% 30.38 in 6.0 mi North 3.5 mph - N/A   Clear
6:52 AM 32.0 °F 27.5 °F 28.0 °F 85% 30.41 in 4.0 mi NNW 4.6 mph - N/A   Clear
7:52 AM 37.0 °F 34.5 °F 30.9 °F 79% 30.43 in 4.0 mi North 3.5 mph - N/A   Haze
8:52 AM 44.1 °F 41.5 °F 33.1 °F 65% 30.43 in 7.0 mi NE 4.6 mph - N/A   Clear
9:52 AM 48.0 °F - 33.1 °F 56% 30.44 in 9.0 mi NNE 6.9 mph - N/A   Clear
10:52 AM 50.0 °F - 32.0 °F 50% 30.43 in 10.0 mi NNE 6.9 mph - N/A   Clear
11:52 AM 53.1 °F - 30.9 °F 43% 30.40 in 10.0 mi NNE 5.8 mph - N/A   Clear
12:52 PM 55.0 °F - 28.9 °F 37% 30.39 in 10.0 mi North 5.8 mph - N/A   Clear
1:52 PM 55.9 °F - 28.0 °F 34% 30.38 in 10.0 mi NE 6.9 mph - N/A   Clear
2:52 PM 57.0 °F - 28.0 °F 33% 30.38 in 10.0 mi North 9.2 mph - N/A   Clear
3:52 PM 55.0 °F - 28.9 °F 37% 30.39 in 10.0 mi North 9.2 mph - N/A   Clear
4:52 PM 48.9 °F - 28.9 °F 46% 30.39 in 10.0 mi North 6.9 mph - N/A   Clear
5:52 PM 45.0 °F 41.2 °F 28.9 °F 53% 30.41 in 10.0 mi North 6.9 mph - N/A   Clear
6:52 PM 42.1 °F 37.7 °F 28.9 °F 60% 30.42 in 10.0 mi NNE 6.9 mph - N/A   Clear
7:52 PM 39.0 °F 34.8 °F 28.0 °F 65% 30.41 in 10.0 mi North 5.8 mph - N/A   Clear
8:52 PM 39.0 °F 34.8 °F 28.0 °F 65% 30.42 in 10.0 mi NNE 5.8 mph - N/A   Clear
9:52 PM 37.9 °F 34.4 °F 28.0 °F 68% 30.42 in 10.0 mi North 4.6 mph - N/A   Clear
10:52 PM 39.0 °F 36.8 °F 28.0 °F 65% 30.43 in 10.0 mi NNE 3.5 mph - N/A   Clear
11:52 PM 37.0 °F - 28.0 °F 70% 30.43 in 10.0 mi Calm Calm - N/A   Clear